Ortonville, MN

9:58 AM CST on December 16, 2017 (GMT -0600)
Ortonville Municipal-Martinson

Weather History for KVVV - September, 2013

Change the Weather History Date:

Friday, September 27, 2013

  Actual Average (KAQP) Record (KAQP)
Temperature  
Mean Temperature 66 °F -  
Max Temperature 78 °F 64 °F 87 °F (2015)
Min Temperature 53 °F 39 °F 26 °F (2002)
Growing Degree Days 16 (Base 50)    
Moisture  
Dew Point 59 °F    
Average Humidity 76    
Maximum Humidity 94    
Minimum Humidity 54    
Precipitation  
Precipitation 0.23 in - - ()
Sea Level Pressure  
Sea Level Pressure 29.74 in    
Wind  
Wind Speed 8 mph (SE)    
Max Wind Speed 17 mph    
Max Gust Speed 26 mph    
Visibility 10 miles    
Events Rain , Thunderstorm    
Averages and records for this station are not official NWS values.
T = Trace of Precipitation, MM = Missing Value Source: NWS Daily Summary

Daily Weather History Graph

Daily Weather History Graph

Search for Another Location

Airport or City:

Trip Planner

Search our weather history database for the weather conditions in past years. The results will help you decide how hot, cold, wet, or windy it might be!

Date:

Astronomy

Sep. 27, 2013 Rise Set
Actual Time 7:19 AM CDT 7:13 PM CDT
Civil Twilight 6:49 AM CDT 7:42 PM CDT
Nautical Twilight 6:15 AM CDT 8:16 PM CDT
Astronomical Twilight 5:40 AM CDT 8:51 PM CDT
Moon 12:00 AM CDT (9/27) 3:07 PM CDT (9/27)
Length of Visible Light 12h 52m
Length of Day
11h 53m
Last Quarter, 45% of the Moon is Illuminated
Sep 27
Last Quarter
Oct 4
New
Oct 11
First Quarter
Oct 18
Full
Oct 26
Last Quarter

Hourly Weather History & Observations

Time (CDT) Temp. Dew Point Humidity Pressure Visibility Wind Dir Wind Speed Gust Speed Precip Events Conditions
12:14 AM 69.8 °F 57.2 °F 64% 29.76 in 10.0 mi SE 9.2 mph - N/A   Clear
12:33 AM 69.8 °F 57.2 °F 64% 29.76 in 10.0 mi SE 8.1 mph - N/A   Clear
12:54 AM 69.8 °F 57.2 °F 64% 29.76 in 10.0 mi SE 9.2 mph - N/A   Clear
1:14 AM 68.0 °F 57.2 °F 68% 29.76 in 10.0 mi SE 8.1 mph - N/A   Clear
1:33 AM 66.2 °F 57.2 °F 73% 29.76 in 10.0 mi SE 6.9 mph - N/A   Clear
1:54 AM 66.2 °F 57.2 °F 73% 29.77 in 10.0 mi SE 5.8 mph - N/A   Clear
2:14 AM 66.2 °F 57.2 °F 73% 29.77 in 10.0 mi Calm Calm - N/A   Scattered Clouds
2:33 AM 66.2 °F 57.2 °F 73% 29.77 in 10.0 mi ESE 3.5 mph - N/A   Mostly Cloudy
2:54 AM 66.2 °F 57.2 °F 73% 29.76 in 10.0 mi East 4.6 mph - N/A   Mostly Cloudy
3:14 AM 64.4 °F 57.2 °F 77% 29.75 in 10.0 mi East 5.8 mph - N/A   Mostly Cloudy
3:33 AM 64.4 °F 57.2 °F 77% 29.75 in 10.0 mi East 4.6 mph - N/A   Mostly Cloudy
3:54 AM 64.4 °F 57.2 °F 77% 29.75 in 7.0 mi SE 3.5 mph - N/A   Mostly Cloudy
4:13 AM 64.4 °F 60.8 °F 88% 29.76 in 10.0 mi SE 5.8 mph - 0.02 in Rain Rain
4:34 AM 64.4 °F 60.8 °F 88% 29.76 in 10.0 mi Calm Calm - 0.04 in Rain , Thunderstorm Light Thunderstorms and Rain
4:54 AM 64.4 °F 60.8 °F 88% 29.77 in 10.0 mi Calm Calm - 0.09 in Rain , Thunderstorm Light Thunderstorms and Rain
5:13 AM 64.4 °F 60.8 °F 88% 29.77 in 10.0 mi Calm Calm - N/A Thunderstorm Thunderstorm
5:34 AM 62.6 °F 60.8 °F 94% 29.76 in 10.0 mi SE 3.5 mph - 0.01 in Rain Light Rain
5:54 AM 62.6 °F 60.8 °F 94% 29.75 in 10.0 mi SE 6.9 mph - 0.02 in   Scattered Clouds
6:13 AM 62.6 °F 60.8 °F 94% 29.74 in 10.0 mi ESE 9.2 mph - N/A   Scattered Clouds
6:34 AM 62.6 °F 60.8 °F 94% 29.74 in 10.0 mi ESE 8.1 mph - N/A   Scattered Clouds
6:54 AM 62.6 °F 60.8 °F 94% 29.74 in 10.0 mi ESE 8.1 mph - N/A   Scattered Clouds
7:13 AM 62.6 °F 60.8 °F 94% 29.73 in 10.0 mi ESE 6.9 mph - N/A   Clear
7:34 AM 62.6 °F 60.8 °F 94% 29.74 in 10.0 mi SE 5.8 mph - N/A   Clear
7:54 AM 64.4 °F 60.8 °F 88% 29.74 in 10.0 mi SE 8.1 mph - N/A   Clear
8:13 AM 64.4 °F 60.8 °F 88% 29.74 in 10.0 mi SE 10.4 mph - N/A   Clear
8:34 AM 64.4 °F 60.8 °F 88% 29.73 in 10.0 mi ESE 9.2 mph - N/A   Clear
8:54 AM 66.2 °F 62.6 °F 88% 29.73 in 10.0 mi SE 10.4 mph - N/A   Clear
9:14 AM 66.2 °F 62.6 °F 88% 29.74 in 10.0 mi SE 8.1 mph - N/A   Clear
9:34 AM 69.8 °F 62.6 °F 78% 29.73 in 10.0 mi SSE 8.1 mph - N/A   Clear
9:53 AM 69.8 °F 62.6 °F 78% 29.73 in 7.0 mi SSE 10.4 mph 17.3 mph 0.01 in Rain Heavy Rain
10:14 AM 69.8 °F 62.6 °F 78% 29.73 in 10.0 mi SSE 9.2 mph 19.6 mph N/A   Scattered Clouds
10:34 AM 71.6 °F 62.6 °F 73% 29.73 in 10.0 mi SSE 12.7 mph 18.4 mph N/A   Scattered Clouds
10:53 AM 71.6 °F 62.6 °F 73% 29.73 in 10.0 mi SSE 11.5 mph - N/A Rain Light Rain
11:14 AM 71.6 °F 62.6 °F 73% 29.71 in 10.0 mi SSE 12.7 mph 21.9 mph N/A   Scattered Clouds
11:34 AM 71.6 °F 62.6 °F 73% 29.72 in 10.0 mi SSE 11.5 mph 17.3 mph N/A   Scattered Clouds
11:53 AM 73.4 °F 62.6 °F 69% 29.72 in 10.0 mi SSE 13.8 mph 18.4 mph N/A   Clear
12:14 PM 73.4 °F 62.6 °F 69% 29.71 in 10.0 mi SSE 12.7 mph 18.4 mph N/A   Clear
12:33 PM 73.4 °F 64.4 °F 73% 29.71 in 10.0 mi SSE 9.2 mph 16.1 mph N/A Rain , Thunderstorm Thunderstorms and Rain
12:53 PM 75.2 °F 64.4 °F 69% 29.71 in 10.0 mi South 8.1 mph - N/A   Clear
1:13 PM 75.2 °F 62.6 °F 65% 29.69 in 10.0 mi SSE 6.9 mph - N/A   Clear
1:34 PM 78.8 °F 62.6 °F 57% 29.68 in 10.0 mi SSE 9.2 mph 18.4 mph N/A   Clear
1:54 PM 78.8 °F 62.6 °F 57% 29.68 in 10.0 mi SSE 11.5 mph 17.3 mph N/A   Scattered Clouds
2:13 PM 75.2 °F 62.6 °F 65% 29.68 in 10.0 mi SSE 10.4 mph 17.3 mph N/A   Mostly Cloudy
2:34 PM 75.2 °F 62.6 °F 65% 29.68 in 10.0 mi SE 10.4 mph 17.3 mph N/A   Overcast
2:54 PM 77.0 °F 62.6 °F 61% 29.68 in 10.0 mi South 12.7 mph 18.4 mph N/A   Overcast
3:13 PM 78.8 °F 62.6 °F 57% 29.68 in 10.0 mi South 13.8 mph 17.3 mph N/A   Overcast
3:34 PM 78.8 °F 60.8 °F 54% 29.69 in 10.0 mi South 13.8 mph 21.9 mph N/A   Overcast
3:54 PM 78.8 °F 60.8 °F 54% 29.70 in 10.0 mi South 17.3 mph 24.2 mph N/A   Overcast
4:13 PM 78.8 °F 60.8 °F 54% 29.69 in 10.0 mi South 16.1 mph 26.5 mph N/A   Scattered Clouds
4:34 PM 77.0 °F 60.8 °F 57% 29.70 in 10.0 mi South 10.4 mph 18.4 mph N/A   Clear
4:54 PM 77.0 °F 60.8 °F 57% 29.69 in 10.0 mi South 6.9 mph - N/A   Clear
5:13 PM 75.2 °F 60.8 °F 61% 29.71 in 10.0 mi South 9.2 mph - N/A   Clear
5:34 PM 75.2 °F 60.8 °F 61% 29.73 in 10.0 mi South 8.1 mph 19.6 mph N/A   Clear
5:53 PM 75.2 °F 60.8 °F 61% 29.74 in 10.0 mi West 10.4 mph 19.6 mph N/A   Scattered Clouds
6:13 PM 64.4 °F 55.4 °F 73% 29.73 in 10.0 mi NNW 9.2 mph - N/A   Scattered Clouds
6:34 PM 62.6 °F 53.6 °F 72% 29.75 in 10.0 mi NW 9.2 mph - N/A   Clear
6:53 PM 62.6 °F 53.6 °F 72% 29.76 in 10.0 mi NW 8.1 mph - N/A   Clear
7:14 PM 60.8 °F 53.6 °F 77% 29.74 in 10.0 mi NNW 9.2 mph - N/A   Clear
7:34 PM 60.8 °F 53.6 °F 77% 29.75 in 10.0 mi NNW 8.1 mph - N/A   Clear
7:53 PM 60.8 °F 53.6 °F 77% 29.76 in 10.0 mi NW 8.1 mph - N/A   Clear
8:14 PM 59.0 °F 51.8 °F 77% 29.76 in 10.0 mi NNW 8.1 mph - N/A   Clear
8:33 PM 57.2 °F 51.8 °F 82% 29.76 in 10.0 mi NNW 6.9 mph - N/A   Clear
8:54 PM 57.2 °F 51.8 °F 82% 29.76 in 10.0 mi NNW 8.1 mph - N/A   Clear
9:14 PM 57.2 °F 51.8 °F 82% 29.76 in 10.0 mi NNW 8.1 mph - N/A   Clear
9:33 PM 57.2 °F 50.0 °F 77% 29.76 in 10.0 mi North 11.5 mph - N/A   Mostly Cloudy
9:54 PM 55.4 °F 51.8 °F 88% 29.77 in 10.0 mi NNW 8.1 mph - N/A Rain Light Rain
10:14 PM 55.4 °F 51.8 °F 88% 29.79 in 10.0 mi WNW 6.9 mph - 0.01 in Rain Rain
10:33 PM 55.4 °F 51.8 °F 88% 29.76 in 10.0 mi North 5.8 mph 11.5 mph 0.02 in Rain Light Rain
10:54 PM 55.4 °F 51.8 °F 88% 29.77 in 10.0 mi North 3.5 mph - 0.02 in Rain Light Rain
11:14 PM 53.6 °F 51.8 °F 94% 29.75 in 7.0 mi North 10.4 mph - 0.09 in Rain Light Rain
11:33 PM 53.6 °F 51.8 °F 94% 29.76 in 10.0 mi NW 6.9 mph - 0.09 in Rain Light Rain
11:54 PM 53.6 °F 51.8 °F 94% 29.74 in 10.0 mi North 5.8 mph - 0.09 in   Overcast